JD,Date,Time,Lat,Long,"xCO2,w","xCO2,a",Eq Temp,Pressure,SST (TSG),Sal (TSG),"f(CO2)w, equil","f(CO2)w, in situ",f(CO2)a,�fCO2
90.761,3/30/96,18:16:05,25.37,-80.03,367.16,366.60,26.03,1014.24,25.76,36.40,354.63,350.90,353.89,-2.99
90.764,3/30/96,18:20:47,25.36,-80.03,366.66,366.60,26.03,1014.21,25.75,36.41,354.14,350.36,353.89,-3.53
90.768,3/30/96,18:25:17,25.35,-80.04,365.92,366.60,26.04,1014.17,25.74,36.40,353.41,349.45,353.89,-4.44
90.771,3/30/96,18:29:47,25.34,-80.03,368.85,366.60,26.03,1014.11,25.75,36.40,356.22,352.36,353.89,-1.53
90.782,3/30/96,18:46:17,25.32,-80.09,366.88,366.60,26.05,1013.61,25.77,36.40,354.13,350.28,353.89,-3.62
90.785,3/30/96,18:50:47,25.31,-80.09,367.13,366.60,26.06,1013.56,25.77,36.40,354.36,350.35,353.89,-3.54
90.788,3/30/96,18:55:17,25.30,-80.09,367.48,366.60,26.06,1013.49,25.79,36.39,354.65,350.94,353.89,-2.95
90.792,3/30/96,18:59:47,25.28,-80.09,367.54,366.60,26.08,1013.50,25.77,36.41,354.72,350.62,353.89,-3.28
90.803,3/30/96,19:16:05,25.24,-80.11,366.41,365.06,26.06,1013.36,25.75,36.42,353.60,349.42,352.19,-2.77
90.806,3/30/96,19:20:47,25.23,-80.12,366.32,365.06,26.06,1013.28,25.76,36.41,353.47,349.46,352.19,-2.73
90.809,3/30/96,19:25:17,25.23,-80.12,366.16,365.06,26.08,1013.23,25.76,36.42,353.31,349.04,352.19,-3.15
90.812,3/30/96,19:29:47,25.21,-80.12,366.04,365.06,26.07,1013.16,25.75,36.41,353.17,348.92,352.19,-3.26
90.824,3/30/96,19:46:17,25.17,-80.13,364.87,365.06,26.05,1013.00,25.82,36.37,351.95,348.86,352.19,-3.33
90.827,3/30/96,19:50:47,25.16,-80.14,364.81,365.06,26.11,1012.91,25.87,36.37,351.82,348.71,352.19,-3.47
90.830,3/30/96,19:55:17,25.15,-80.15,365.12,365.06,26.16,1012.85,25.94,36.37,352.05,348.99,352.19,-3.20
90.833,3/30/96,19:59:47,25.14,-80.15,365.61,365.06,26.21,1012.88,25.95,36.39,352.52,349.10,352.19,-3.09
90.907,3/30/96,21:46:17,24.91,-80.34,-999.99,-999.99,26.13,1012.13,25.88,36.40,-999.99,-999.99,-999.99,-999.99
90.910,3/30/96,21:50:47,24.91,-80.35,-999.99,-999.99,26.18,1012.06,25.88,36.40,-999.99,-999.99,-999.99,-999.99
90.913,3/30/96,21:55:17,24.90,-80.35,-999.99,-999.99,26.19,1012.03,25.82,36.45,-999.99,-999.99,-999.99,-999.99
90.917,3/30/96,21:59:47,24.89,-80.37,-999.99,-999.99,26.12,1012.00,25.76,36.42,-999.99,-999.99,-999.99,-999.99
90.928,3/30/96,22:16:05,24.86,-80.40,366.85,364.46,26.18,1011.92,25.90,36.40,353.42,349.68,351.09,-1.40
90.931,3/30/96,22:20:47,24.86,-80.42,366.95,364.46,26.19,1011.95,25.90,36.41,353.52,349.63,351.09,-1.46
90.934,3/30/96,22:25:17,24.84,-80.43,366.95,364.46,26.18,1011.87,25.90,36.41,353.49,349.74,351.09,-1.35
90.937,3/30/96,22:29:47,24.84,-80.44,366.39,364.46,26.17,1011.90,25.88,36.41,352.98,349.14,351.09,-1.95
90.949,3/30/96,22:46:17,24.80,-80.48,366.11,364.46,26.21,1011.85,25.91,36.39,352.67,348.67,351.09,-2.42
90.952,3/30/96,22:50:47,24.80,-80.49,366.36,364.46,26.21,1011.82,25.89,36.39,352.92,348.60,351.09,-2.49
90.955,3/30/96,22:55:17,24.79,-80.50,366.32,364.46,26.18,1011.81,25.88,36.39,352.89,348.84,351.09,-2.24
90.958,3/30/96,22:59:47,24.78,-80.51,366.14,364.46,26.18,1011.82,25.89,36.38,352.71,348.76,351.09,-2.32
90.970,3/30/96,23:16:05,24.76,-80.56,366.69,364.65,26.19,1011.79,25.90,36.40,353.22,349.24,351.29,-2.05
90.973,3/30/96,23:20:47,24.75,-80.57,366.72,364.65,26.18,1011.82,25.86,36.41,353.29,348.96,351.29,-2.33
90.976,3/30/96,23:25:17,24.74,-80.57,366.50,364.65,26.15,1011.83,25.87,36.39,353.07,349.30,351.29,-2.00
90.979,3/30/96,23:29:47,24.73,-80.59,366.29,364.65,26.15,1011.84,25.86,36.40,352.87,349.02,351.29,-2.27
90.990,3/30/96,23:46:17,24.70,-80.64,366.26,364.65,26.12,1011.78,25.79,36.42,352.87,348.48,351.29,-2.81
90.994,3/30/96,23:50:47,24.70,-80.64,366.16,364.65,26.08,1011.86,25.77,36.42,352.82,348.76,351.29,-2.54
90.997,3/30/96,23:55:17,24.69,-80.65,366.13,364.65,26.06,1011.90,25.77,36.41,352.81,348.82,351.29,-2.47
91.000,3/30/96,23:59:47,24.69,-80.67,366.01,364.65,26.05,1011.82,25.75,36.42,352.67,348.70,351.29,-2.59
91.011,3/31/96,0:16:05,24.65,-80.71,366.33,364.67,26.05,1011.93,25.78,36.42,353.01,349.39,351.48,-2.08
91.014,3/31/96,0:20:47,24.65,-80.72,366.27,364.67,26.05,1011.92,25.78,36.41,352.94,349.35,351.48,-2.13
91.018,3/31/96,0:25:17,24.64,-80.74,366.21,364.67,26.05,1012.01,25.78,36.41,352.91,349.32,351.48,-2.16
91.021,3/31/96,0:29:47,24.63,-80.75,366.18,364.67,26.05,1012.00,25.79,36.41,352.88,349.35,351.48,-2.13
91.032,3/31/96,0:46:17,24.61,-80.79,366.39,364.67,26.06,1012.24,25.80,36.42,353.16,349.65,351.48,-1.83
91.035,3/31/96,0:50:47,24.61,-80.81,366.43,364.67,26.06,1012.30,25.79,36.42,353.22,349.51,351.48,-1.97
91.038,3/31/96,0:55:17,24.60,-80.82,366.55,364.67,26.05,1012.43,25.79,36.41,353.38,349.88,351.48,-1.60
91.042,3/31/96,0:59:47,24.61,-80.84,366.49,364.67,26.05,1012.44,25.78,36.42,353.33,349.75,351.48,-1.73
91.053,3/31/96,1:16:05,24.58,-80.89,367.27,364.86,26.06,1012.50,25.80,36.43,354.10,350.54,351.83,-1.29
91.056,3/31/96,1:20:47,24.59,-80.91,367.27,364.86,26.05,1012.54,25.79,36.42,354.11,350.65,351.83,-1.18
91.059,3/31/96,1:25:17,24.58,-80.92,367.08,364.86,26.05,1012.64,25.79,36.43,353.97,350.44,351.83,-1.39
91.062,3/31/96,1:29:47,24.57,-80.93,366.99,364.86,26.03,1012.58,25.77,36.43,353.88,350.27,351.83,-1.56
91.074,3/31/96,1:46:17,24.54,-80.97,366.68,364.86,26.00,1012.66,25.75,36.43,353.62,350.18,351.83,-1.65
91.077,3/31/96,1:50:47,24.53,-80.98,366.62,364.86,25.99,1012.74,25.74,36.44,353.59,350.27,351.83,-1.56
91.080,3/31/96,1:55:17,24.53,-81.00,366.47,364.86,25.99,1012.76,25.73,36.44,353.46,349.92,351.83,-1.92
91.083,3/31/96,1:59:47,24.53,-81.01,366.22,364.86,25.97,1012.80,25.70,36.44,353.26,349.53,351.83,-2.31
91.095,3/31/96,2:16:05,24.53,-81.07,365.82,364.95,25.91,1012.85,25.53,36.47,353.00,347.88,352.71,-4.84
91.098,3/31/96,2:20:47,24.52,-81.09,365.85,364.95,25.82,1012.93,25.43,36.48,353.13,347.84,352.71,-4.88
91.101,3/31/96,2:25:17,24.52,-81.10,365.48,364.95,25.73,1013.02,25.32,36.49,352.87,347.36,352.71,-5.36
91.104,3/31/96,2:29:47,24.51,-81.12,365.05,364.95,25.64,1013.11,25.19,36.51,352.57,346.52,352.71,-6.19
91.115,3/31/96,2:46:17,24.50,-81.17,362.62,364.95,25.27,1013.41,25.01,36.44,350.45,346.99,352.71,-5.73
91.119,3/31/96,2:50:47,24.50,-81.19,362.22,364.95,25.29,1013.59,25.07,36.44,350.08,347.18,352.71,-5.53
91.122,3/31/96,2:55:17,24.49,-81.21,362.07,364.95,25.34,1013.78,25.09,36.45,349.99,346.62,352.71,-6.09
91.125,3/31/96,2:59:47,24.49,-81.22,362.01,364.95,25.36,1013.84,25.14,36.44,349.92,346.98,352.71,-5.73
91.136,3/31/96,3:16:05,24.47,-81.28,362.17,364.78,25.49,1013.96,25.25,36.45,350.05,346.86,352.50,-5.64
91.139,3/31/96,3:20:47,24.46,-81.29,362.20,364.78,25.52,1013.86,25.25,36.45,350.05,346.44,352.50,-6.07
91.143,3/31/96,3:25:17,24.46,-81.30,362.20,364.78,25.51,1013.78,25.26,36.44,350.01,346.58,352.50,-5.92
91.146,3/31/96,3:29:47,24.46,-81.32,362.14,364.78,25.52,1013.72,25.24,36.44,349.95,346.24,352.50,-6.27
91.157,3/31/96,3:46:17,24.43,-81.37,361.96,364.78,25.44,1013.55,25.13,36.45,349.78,345.52,352.50,-6.99
91.160,3/31/96,3:50:47,24.44,-81.39,361.81,364.78,25.40,1013.44,25.08,36.45,349.63,345.37,352.50,-7.13
91.163,3/31/96,3:55:17,24.43,-81.40,361.44,364.78,25.36,1013.40,25.06,36.44,349.27,345.22,352.50,-7.29
91.167,3/31/96,3:59:47,24.43,-81.42,361.13,364.78,25.34,1013.35,25.08,36.42,348.95,345.45,352.50,-7.06
91.178,3/31/96,4:16:04,24.42,-81.47,360.91,364.71,25.34,1013.21,25.05,36.44,348.70,344.79,352.22,-7.42
91.181,3/31/96,4:20:48,24.41,-81.48,360.82,364.71,25.33,1013.14,25.07,36.42,348.58,345.10,352.22,-7.12
91.184,3/31/96,4:25:17,24.40,-81.49,360.57,364.71,25.33,1013.11,25.09,36.42,348.32,345.04,352.22,-7.18
91.187,3/31/96,4:29:47,24.41,-81.50,360.45,364.71,25.34,1013.13,25.11,36.42,348.19,345.06,352.22,-7.15
91.199,3/31/96,4:46:17,24.38,-81.56,360.14,364.71,25.46,1013.13,25.23,36.42,347.82,344.78,352.22,-7.43
91.202,3/31/96,4:50:47,24.39,-81.57,360.11,364.71,25.47,1013.11,25.25,36.42,347.77,344.77,352.22,-7.44
91.205,3/31/96,4:55:17,24.38,-81.59,360.17,364.71,25.49,1013.09,25.26,36.42,347.81,344.80,352.22,-7.41
91.208,3/31/96,4:59:47,24.38,-81.60,360.20,364.71,25.50,1013.10,25.26,36.42,347.85,344.63,352.22,-7.59
91.220,3/31/96,5:16:05,24.36,-81.65,360.50,364.85,25.43,1013.20,25.06,36.46,348.30,343.37,352.89,-9.53
91.223,3/31/96,5:20:47,24.36,-81.66,360.13,364.85,25.34,1013.15,24.96,36.46,347.99,342.79,352.89,-10.11
91.226,3/31/96,5:25:17,24.36,-81.66,359.71,364.85,25.26,1013.15,24.84,36.47,347.65,342.12,352.89,-10.77
91.229,3/31/96,5:29:47,24.35,-81.70,359.22,364.85,25.16,1013.15,24.71,36.47,347.27,341.31,352.89,-11.58
91.240,3/31/96,5:46:17,24.33,-81.75,356.48,364.85,24.68,1013.01,24.24,36.46,344.86,339.04,352.89,-13.85
91.244,3/31/96,5:50:47,24.34,-81.77,355.48,364.85,24.59,1013.02,24.10,36.49,343.98,337.41,352.89,-15.49
91.247,3/31/96,5:55:17,24.34,-81.78,354.60,364.85,24.46,1013.00,23.98,36.48,343.19,336.89,352.89,-16.01
91.250,3/31/96,5:59:47,24.34,-81.80,353.78,364.85,24.35,1012.94,23.92,36.46,342.42,336.78,352.89,-16.12
91.261,3/31/96,6:16:05,24.34,-81.86,351.90,364.76,24.25,1012.84,24.00,36.42,340.52,337.16,352.89,-15.73
91.264,3/31/96,6:20:47,24.34,-81.88,351.94,364.76,24.29,1012.79,24.09,36.41,340.48,337.80,352.89,-15.09
91.268,3/31/96,6:25:17,24.34,-81.89,352.33,364.76,24.36,1013.14,24.19,36.41,340.92,338.59,352.89,-14.29
91.271,3/31/96,6:29:47,24.34,-81.91,352.87,364.76,24.44,1013.39,24.29,36.40,341.47,339.42,352.89,-13.47
91.282,3/31/96,6:46:16,24.34,-81.97,356.02,364.76,24.72,1013.42,24.56,36.42,344.36,342.27,352.89,-10.61
91.285,3/31/96,6:50:46,24.34,-81.98,356.75,364.76,24.79,1013.28,24.60,36.43,344.99,342.55,352.89,-10.34
91.288,3/31/96,6:55:18,24.34,-82.00,357.33,364.76,24.84,1013.39,24.63,36.44,345.57,342.71,352.89,-10.18
91.292,3/31/96,6:59:47,24.34,-82.01,357.70,364.76,24.87,1013.41,24.65,36.44,345.92,343.03,352.89,-9.86
91.303,3/31/96,7:16:05,24.33,-82.07,358.86,364.62,24.89,1013.07,24.60,36.47,346.96,343.07,352.46,-9.39
91.306,3/31/96,7:20:47,24.33,-82.09,358.95,364.62,24.86,1012.92,24.56,36.48,347.02,343.10,352.46,-9.36
91.309,3/31/96,7:25:17,24.34,-82.11,358.95,364.62,24.83,1012.96,24.54,36.47,347.05,343.16,352.46,-9.30
91.312,3/31/96,7:29:47,24.34,-82.12,358.77,364.62,24.80,1012.92,24.50,36.48,346.88,342.90,352.46,-9.56
91.324,3/31/96,7:46:17,24.34,-82.19,358.62,364.62,24.68,1012.40,24.35,36.50,346.65,342.27,352.46,-10.19
91.327,3/31/96,7:50:47,24.34,-82.21,358.62,364.62,24.62,1012.29,24.31,36.48,346.63,342.54,352.46,-9.92
91.330,3/31/96,7:55:17,24.34,-82.22,358.52,364.62,24.58,1012.31,24.29,36.48,346.57,342.73,352.46,-9.73
91.333,3/31/96,7:59:47,24.34,-82.24,358.25,364.62,24.55,1012.07,24.32,36.46,346.20,343.05,352.46,-9.41
91.345,3/31/96,8:16:05,24.34,-82.30,357.60,364.55,24.65,1011.80,24.43,36.46,345.41,342.52,351.98,-9.46
91.348,3/31/96,8:20:47,24.34,-82.32,357.60,364.55,24.66,1011.84,24.43,36.47,345.43,342.38,351.98,-9.60
91.351,3/31/96,8:25:17,24.34,-82.34,357.72,364.55,24.66,1011.59,24.45,36.46,345.45,342.63,351.98,-9.35
91.354,3/31/96,8:29:47,24.34,-82.36,357.78,364.55,24.68,1011.61,24.45,36.47,345.52,342.45,351.98,-9.53
91.365,3/31/96,8:46:17,24.34,-82.43,357.97,364.55,24.66,1011.33,24.41,36.46,345.62,342.28,351.98,-9.70
91.369,3/31/96,8:50:47,24.34,-82.45,357.91,364.55,24.65,1011.22,24.39,36.46,345.54,342.04,351.98,-9.94
91.372,3/31/96,8:55:17,24.34,-82.47,357.88,364.55,24.62,1011.20,24.37,36.46,345.51,342.19,351.98,-9.79
91.375,3/31/96,8:59:48,24.34,-82.49,357.60,364.55,24.61,1011.19,24.36,36.46,345.25,341.97,351.98,-10.01
91.386,3/31/96,9:16:04,24.33,-82.56,357.14,364.57,24.54,1010.94,24.27,36.47,344.77,341.19,351.94,-10.75
91.389,3/31/96,9:20:46,24.33,-82.58,356.84,364.57,24.52,1010.87,24.25,36.46,344.47,340.91,351.94,-11.03
91.393,3/31/96,9:25:17,24.34,-82.59,356.59,364.57,24.50,1010.86,24.25,36.46,344.23,340.92,351.94,-11.02
91.396,3/31/96,9:29:47,24.34,-82.60,356.53,364.57,24.48,1010.98,24.22,36.47,344.23,340.75,351.94,-11.19
91.407,3/31/96,9:46:17,24.35,-82.67,357.20,364.57,24.55,1011.16,24.35,36.46,344.86,342.19,351.94,-9.75
91.410,3/31/96,9:50:47,24.36,-82.69,358.12,364.57,24.57,1011.01,24.33,36.47,345.70,342.59,351.94,-9.35
91.413,3/31/96,9:55:17,24.35,-82.71,358.48,364.57,24.55,1010.89,24.31,36.47,346.03,342.84,351.94,-9.10
91.417,3/31/96,9:59:47,24.35,-82.73,358.45,364.57,24.54,1010.92,24.29,36.47,346.02,342.66,351.94,-9.28
91.428,3/31/96,10:16:05,24.39,-82.78,358.30,364.60,24.52,1010.65,24.33,36.45,345.76,343.09,351.49,-8.40
91.431,3/31/96,10:20:47,24.41,-82.81,358.51,364.60,24.54,1010.62,24.38,36.43,345.92,343.83,351.49,-7.65
91.434,3/31/96,10:25:17,24.41,-82.82,358.70,364.60,24.58,1010.59,24.48,36.41,346.02,344.67,351.49,-6.82
91.437,3/31/96,10:29:47,24.42,-82.84,358.70,364.60,24.66,1010.67,24.59,36.40,345.98,344.97,351.49,-6.52
91.449,3/31/96,10:46:17,24.46,-82.90,358.27,364.60,25.01,1010.57,24.86,36.45,345.37,343.42,351.49,-8.07
91.452,3/31/96,10:50:47,24.47,-82.92,358.51,364.60,25.04,1010.49,24.85,36.46,345.58,343.12,351.49,-8.37
91.455,3/31/96,10:55:17,24.48,-82.94,358.70,364.60,25.04,1010.51,24.83,36.47,345.78,343.00,351.49,-8.49
91.458,3/31/96,10:59:47,24.48,-82.95,358.97,364.60,25.02,1010.57,24.78,36.48,346.10,342.81,351.49,-8.68
91.470,3/31/96,11:16:05,24.52,-83.00,358.80,364.67,24.98,1010.49,24.78,36.45,345.90,343.21,351.70,-8.49
91.473,3/31/96,11:20:47,24.54,-83.02,358.71,364.67,24.98,1010.48,24.73,36.48,345.84,342.49,351.70,-9.21
91.476,3/31/96,11:25:17,24.55,-83.04,358.64,364.67,24.95,1010.40,24.65,36.47,345.81,341.72,351.70,-9.98
91.479,3/31/96,11:29:47,24.55,-83.05,358.58,364.67,24.88,1010.45,24.61,36.47,345.79,342.20,351.70,-9.49
91.490,3/31/96,11:46:16,24.59,-83.11,357.91,364.67,24.81,1010.57,24.61,36.44,345.19,342.50,351.70,-9.20
91.494,3/31/96,11:50:46,24.61,-83.13,358.37,364.67,24.81,1010.56,24.58,36.46,345.64,342.47,351.70,-9.23
91.497,3/31/96,11:55:16,24.62,-83.14,358.92,364.67,24.80,1010.53,24.57,36.45,346.17,343.15,351.70,-8.55
91.500,3/31/96,11:59:47,24.62,-83.16,359.44,364.67,24.79,1010.60,24.54,36.47,346.71,343.44,351.70,-8.25
91.511,3/31/96,12:16:05,24.67,-83.19,360.14,364.63,24.64,1010.69,24.34,36.50,347.54,343.52,352.34,-8.83
91.514,3/31/96,12:20:47,24.69,-83.19,359.80,364.63,24.59,1010.82,24.30,36.50,347.29,343.33,352.34,-9.01
91.518,3/31/96,12:25:17,24.71,-83.20,359.44,364.63,24.52,1010.88,24.21,36.53,347.01,342.75,352.34,-9.59
91.521,3/31/96,12:29:47,24.73,-83.20,358.80,364.63,24.39,1011.02,24.04,36.52,346.54,341.80,352.34,-10.54
91.532,3/31/96,12:46:17,24.79,-83.21,356.30,364.63,24.20,1011.42,23.75,36.54,344.45,338.53,352.34,-13.82
91.535,3/31/96,12:50:47,24.81,-83.22,355.85,364.63,24.06,1011.50,23.58,36.53,344.14,337.64,352.34,-14.70
91.538,3/31/96,12:55:17,24.83,-83.22,355.27,364.63,23.90,1011.57,23.29,36.60,343.77,335.66,352.34,-16.69
91.542,3/31/96,12:59:47,24.84,-83.22,354.43,364.63,23.67,1011.65,22.84,36.63,343.24,332.18,352.34,-20.17
91.553,3/31/96,13:16:05,24.90,-83.24,346.97,364.70,23.03,1012.02,22.58,36.48,336.28,330.44,353.74,-23.30
91.556,3/31/96,13:20:47,24.93,-83.24,345.98,364.70,22.96,1012.07,22.53,36.46,335.36,329.67,353.74,-24.07
91.559,3/31/96,13:25:17,24.92,-83.24,345.38,364.70,22.92,1012.16,22.47,36.47,334.84,328.91,353.74,-24.83
91.562,3/31/96,13:29:47,24.93,-83.24,345.53,364.70,22.91,1012.21,22.38,36.47,335.05,328.17,353.74,-25.57
91.574,3/31/96,13:46:17,24.94,-83.25,344.10,364.70,22.70,1012.32,22.26,36.42,333.76,328.13,353.74,-25.61
91.577,3/31/96,13:50:47,24.95,-83.25,344.28,364.70,22.68,1012.38,22.28,36.41,333.94,328.67,353.74,-25.07
91.580,3/31/96,13:55:17,24.95,-83.25,344.54,364.70,22.70,1012.40,22.29,36.41,334.21,328.87,353.74,-24.87
91.583,3/31/96,13:59:47,24.96,-83.25,344.81,364.70,22.70,1012.34,22.29,36.41,334.45,329.09,353.74,-24.65
91.615,3/31/96,14:46:17,24.99,-83.25,343.72,364.65,22.65,1012.27,22.23,36.40,333.39,327.94,353.72,-25.78
91.619,3/31/96,14:50:47,24.99,-83.25,343.78,364.65,22.66,1012.14,22.27,36.39,333.38,328.38,353.72,-25.34
91.622,3/31/96,14:55:17,24.99,-83.25,343.81,364.65,22.70,1012.12,22.31,36.40,333.38,328.40,353.72,-25.32
91.625,3/31/96,14:59:47,24.99,-83.24,343.99,364.65,22.73,1012.11,22.33,36.41,333.55,328.27,353.72,-25.45
91.636,3/31/96,15:16:05,24.99,-83.24,344.71,365.35,22.78,1012.22,22.35,36.42,334.27,328.59,354.29,-25.70
91.639,3/31/96,15:20:47,24.99,-83.24,344.68,365.35,22.78,1012.19,22.35,36.42,334.23,328.60,354.29,-25.69
91.643,3/31/96,15:25:17,24.99,-83.24,344.56,365.35,22.78,1012.12,22.36,36.42,334.09,328.56,354.29,-25.73
91.646,3/31/96,15:29:47,24.99,-83.23,344.44,365.35,22.80,1012.20,22.38,36.41,333.99,328.48,354.29,-25.81
91.657,3/31/96,15:46:17,24.99,-83.24,344.35,365.35,22.85,1012.31,22.42,36.42,333.91,328.36,354.29,-25.93
91.660,3/31/96,15:50:47,24.99,-83.24,344.26,365.35,22.86,1012.31,22.43,36.42,333.82,328.22,354.29,-26.07
91.663,3/31/96,15:55:17,24.99,-83.24,344.23,365.35,22.87,1012.33,22.41,36.43,333.81,327.82,354.29,-26.47
91.667,3/31/96,15:59:47,24.99,-83.24,344.08,365.35,22.87,1012.28,22.40,36.42,333.65,327.54,354.29,-26.75
91.678,3/31/96,16:16:05,25.00,-83.23,343.91,365.67,22.87,1012.17,22.44,36.41,333.44,327.82,354.59,-26.77
91.681,3/31/96,16:20:47,25.01,-83.24,343.64,365.67,22.87,1012.19,22.43,36.43,333.19,327.42,354.59,-27.17
91.684,3/31/96,16:25:17,25.03,-83.24,343.29,365.67,22.85,1012.17,22.39,36.44,332.85,326.96,354.59,-27.64
91.687,3/31/96,16:29:47,25.05,-83.25,343.17,365.67,22.82,1012.17,22.36,36.43,332.76,326.72,354.59,-27.88
91.699,3/31/96,16:46:17,25.10,-83.28,342.66,365.67,22.70,1012.04,22.22,36.45,332.30,325.98,354.59,-28.61
91.702,3/31/96,16:50:47,25.12,-83.27,342.63,365.67,22.67,1012.01,22.15,36.46,332.30,325.48,354.59,-29.11
91.705,3/31/96,16:55:16,25.14,-83.28,342.54,365.67,22.61,1011.96,22.11,36.44,332.21,325.75,354.59,-28.84
91.708,3/31/96,16:59:47,25.16,-83.28,342.36,365.67,22.57,1011.96,22.03,36.46,332.08,325.11,354.59,-29.48
91.720,3/31/96,17:16:05,25.22,-83.29,341.30,365.63,22.29,1011.88,21.76,36.41,331.16,324.24,354.59,-30.34
91.723,3/31/96,17:20:47,25.24,-83.30,340.29,365.63,22.24,1011.75,21.74,36.40,330.15,323.59,354.59,-31.00
91.726,3/31/96,17:25:17,25.26,-83.31,339.75,365.63,22.22,1011.67,21.73,36.39,329.61,323.27,354.59,-31.31
91.729,3/31/96,17:29:47,25.28,-83.30,339.36,365.63,22.21,1011.58,21.73,36.39,329.20,323.03,354.59,-31.55
91.740,3/31/96,17:46:17,25.34,-83.32,339.60,365.63,22.32,1011.51,22.05,36.31,329.24,325.72,354.59,-28.87
91.744,3/31/96,17:50:47,25.35,-83.32,340.37,365.63,22.44,1011.39,22.06,36.38,329.95,325.00,354.59,-29.59
91.747,3/31/96,17:55:17,25.37,-83.32,341.09,365.63,22.47,1011.33,22.06,36.39,330.62,325.38,354.59,-29.21
91.750,3/31/96,17:59:47,25.39,-83.33,340.91,365.63,22.46,1011.27,22.06,36.42,330.43,325.25,354.59,-29.34
91.761,3/31/96,18:16:05,25.45,-83.34,340.71,365.45,22.43,1011.06,22.07,36.42,330.16,325.41,353.86,-28.45
91.764,3/31/96,18:20:47,25.47,-83.35,340.62,365.45,22.46,1011.10,22.13,36.40,330.06,325.81,353.86,-28.05
91.768,3/31/96,18:25:17,25.48,-83.35,340.83,365.45,22.51,1011.00,22.17,36.42,330.21,325.80,353.86,-28.07
91.771,3/31/96,18:29:47,25.50,-83.36,341.34,365.45,22.54,1010.74,22.19,36.42,330.60,325.98,353.86,-27.88
91.782,3/31/96,18:46:17,25.56,-83.36,342.86,365.45,22.58,1010.44,22.19,36.42,331.98,326.90,353.86,-26.96
91.785,3/31/96,18:50:47,25.58,-83.37,343.10,365.45,22.58,1010.45,22.20,36.42,332.21,327.24,353.86,-26.62
91.788,3/31/96,18:55:17,25.60,-83.38,343.37,365.45,22.58,1010.53,22.13,36.45,332.53,326.70,353.86,-27.16
91.792,3/31/96,18:59:47,25.62,-83.37,343.22,365.45,22.52,1010.34,22.05,36.44,332.37,326.28,353.86,-27.59
91.803,3/31/96,19:16:06,25.68,-83.39,341.10,365.28,22.31,1010.12,21.82,36.46,330.36,324.03,353.54,-29.51
91.806,3/31/96,19:20:47,25.70,-83.39,340.38,365.28,22.23,1010.03,21.77,36.43,329.67,323.63,353.54,-29.92
91.809,3/31/96,19:25:18,25.72,-83.39,339.63,365.28,22.17,1009.86,21.80,36.38,328.87,324.04,353.54,-29.50
91.812,3/31/96,19:29:47,25.73,-83.40,339.28,365.28,22.20,1009.84,21.90,36.36,328.47,324.48,353.54,-29.07
91.824,3/31/96,19:46:17,25.80,-83.41,340.62,365.28,22.44,1009.78,22.06,36.43,329.67,324.66,353.54,-28.89
91.827,3/31/96,19:50:47,25.81,-83.41,341.28,365.28,22.43,1009.77,22.07,36.41,330.29,325.66,353.54,-27.89
91.830,3/31/96,19:55:17,25.83,-83.41,342.06,365.28,22.44,1009.80,22.04,36.45,331.07,325.86,353.54,-27.68
91.833,3/31/96,19:59:47,25.85,-83.42,342.71,365.28,22.43,1009.88,21.80,36.53,331.86,323.64,353.54,-29.91
91.845,3/31/96,20:16:05,25.91,-83.43,339.49,365.44,22.00,1010.18,21.62,36.36,328.92,323.93,353.99,-30.07
91.848,3/31/96,20:20:47,25.93,-83.43,338.15,365.44,22.05,1010.09,21.64,36.40,327.58,322.34,353.99,-31.66
91.851,3/31/96,20:25:17,25.94,-83.44,337.91,365.44,22.08,1010.08,21.67,36.40,327.33,322.02,353.99,-31.97
91.854,3/31/96,20:29:47,25.96,-83.43,337.88,365.44,22.10,1010.12,21.79,36.36,327.26,323.25,353.99,-30.74
91.865,3/31/96,20:46:17,26.02,-83.45,340.45,365.44,22.27,1010.22,21.65,36.50,329.85,321.84,353.99,-32.15
91.869,3/31/96,20:50:47,26.04,-83.46,340.12,365.44,22.15,1010.23,21.56,36.48,329.58,321.97,353.99,-32.02
91.872,3/31/96,20:55:17,26.06,-83.45,339.49,365.44,22.06,1010.25,21.53,36.43,328.99,322.14,353.99,-31.85
91.875,3/31/96,20:59:47,26.07,-83.46,338.32,365.44,22.00,1010.27,21.62,36.39,327.82,322.89,353.99,-31.10
91.886,3/31/96,21:16:05,26.13,-83.47,339.46,366.16,22.27,1010.28,21.93,36.43,328.77,324.40,354.48,-30.08
91.889,3/31/96,21:20:47,26.15,-83.48,340.69,366.16,22.34,1010.30,21.95,36.40,329.96,324.88,354.48,-29.60
91.893,3/31/96,21:25:17,26.17,-83.49,340.90,366.16,22.34,1010.14,22.14,36.35,330.01,327.38,354.48,-27.10
91.896,3/31/96,21:29:47,26.19,-83.49,341.41,366.16,22.49,1010.14,22.06,36.48,330.55,324.87,354.48,-29.62
91.907,3/31/96,21:46:17,26.26,-83.51,341.26,366.16,22.48,1010.11,21.50,36.57,330.69,318.10,354.48,-36.38
91.910,3/31/96,21:50:48,26.27,-83.51,340.96,366.16,22.06,1010.28,21.36,36.45,330.51,321.51,354.48,-32.98
91.913,3/31/96,21:55:16,26.29,-83.51,339.85,366.16,21.88,1010.43,21.35,36.40,329.49,322.64,354.48,-31.84
91.917,3/31/96,21:59:46,26.31,-83.52,339.43,366.16,21.81,1010.38,21.32,36.42,329.08,322.74,354.48,-31.75
91.928,3/31/96,22:16:05,26.36,-83.54,338.53,365.49,21.66,1010.41,21.46,36.32,328.14,325.55,354.42,-28.87
91.931,3/31/96,22:20:47,26.38,-83.54,338.14,365.49,21.80,1010.39,21.59,36.35,327.69,324.92,354.42,-29.50
91.934,3/31/96,22:25:17,26.39,-83.54,338.70,365.49,21.93,1010.46,21.58,36.41,328.27,323.70,354.42,-30.72
91.937,3/31/96,22:29:47,26.41,-83.55,339.18,365.49,21.97,1010.63,21.48,36.43,328.84,322.62,354.42,-31.80
91.949,3/31/96,22:46:17,26.47,-83.56,338.70,365.49,21.84,1011.20,21.44,36.40,328.58,323.42,354.42,-31.00
91.952,3/31/96,22:50:47,26.49,-83.57,338.62,365.49,21.84,1011.28,21.39,36.42,328.55,322.74,354.42,-31.68
91.955,3/31/96,22:55:17,26.51,-83.57,338.53,365.49,21.80,1011.90,21.32,36.43,328.70,322.47,354.42,-31.95
91.958,3/31/96,22:59:47,26.52,-83.58,337.87,365.49,21.75,1013.04,21.33,36.38,328.43,322.88,354.42,-31.54
91.970,3/31/96,23:16:05,26.59,-83.59,335.37,364.82,21.80,1012.82,21.62,36.32,325.78,323.42,354.42,-31.01
91.973,3/31/96,23:20:47,26.61,-83.59,334.87,364.82,21.89,1012.97,21.67,36.38,325.32,322.40,354.42,-32.03
91.976,3/31/96,23:25:17,26.63,-83.60,334.54,364.82,21.97,1013.22,21.72,36.35,325.05,321.76,354.42,-32.66
91.979,3/31/96,23:29:47,26.64,-83.61,333.65,364.82,22.00,1013.36,21.93,36.28,324.12,323.20,354.42,-31.22
91.990,3/31/96,23:46:17,26.70,-83.62,334.30,364.82,21.92,1012.81,21.51,36.33,324.79,319.54,354.42,-34.88
91.994,3/31/96,23:50:47,26.72,-83.63,334.12,364.82,21.88,1012.70,21.57,36.28,324.56,320.59,354.42,-33.83
91.997,3/31/96,23:55:17,26.73,-83.62,334.24,364.82,21.87,1012.65,21.82,36.18,324.53,323.92,354.42,-30.50
92.000,3/31/96,23:59:47,26.75,-83.63,334.60,364.82,22.01,1012.68,22.13,36.19,324.72,326.33,354.42,-28.10
92.011,4/1/96,0:16:05,26.81,-83.64,335.23,364.88,22.85,1012.77,22.62,36.31,325.11,322.20,353.64,-31.45
92.014,4/1/96,0:20:46,26.82,-83.65,335.74,364.88,22.86,1012.69,22.56,36.32,325.61,321.79,353.64,-31.86
92.018,4/1/96,0:25:16,26.84,-83.66,336.18,364.88,22.84,1011.93,22.50,36.31,325.83,321.59,353.64,-32.06
92.021,4/1/96,0:29:47,26.86,-83.65,336.51,364.88,22.78,1011.06,22.48,36.29,325.88,322.00,353.64,-31.64
92.032,4/1/96,0:46:17,26.93,-83.67,336.24,364.88,22.57,1011.48,22.23,36.25,325.89,321.49,353.64,-32.16